• In Italy
  • List of Countries
  • For 7 days
  • Water Temperature
  • Satellite Maps
  • Weather Map
  • Weather Widgets
  • user-avatar
    Login

    Hourly Weather Gaevcy (Markovo)

    Today, 21 April, Saturday

    Time Temperature Precipitation Wind Pressure Humidity
    00:00 +10°C° 0 mm 4 mps 746 mmHg 79%
    01:00 +10°C° 0 mm 4 mps 745 mmHg 78%
    02:00 +10°C° 0 mm 4 mps 744 mmHg 78%
    03:00 +9°C° 0 mm 5 mps 743 mmHg 76%
    04:00 +9°C° 0 mm 5 mps 743 mmHg 75%
    05:00 +9°C° 0 mm 5 mps 742 mmHg 73%
    06:00 +10°C° 0 mm 6 mps 741 mmHg 71%
    07:00 +11°C° 0 mm 7 mps 740 mmHg 68%
    08:00 +12°C° 0 mm 7 mps 739 mmHg 66%
    09:00 +15°C° 0 mm 8 mps 739 mmHg 63%
    10:00 +17°C° 0 mm 8 mps 738 mmHg 61%
    11:00 +18°C° 0 mm 9 mps 738 mmHg 58%
    12:00 +18°C° 0 mm 9 mps 738 mmHg 53%
    13:00 +18°C° 0 mm 10 mps 738 mmHg 49%
    14:00 +18°C° 0 mm 10 mps 738 mmHg 44%
    15:00 +17°C° 0 mm 9 mps 738 mmHg 45%
    16:00 +16°C° 0 mm 9 mps 739 mmHg 46%
    17:00 +15°C° 0 mm 8 mps 739 mmHg 47%
    18:00 +14°C° 0 mm 7 mps 740 mmHg 51%
    19:00 +11°C° 0 mm 6 mps 740 mmHg 54%
    20:00 +10°C° 0 mm 4 mps 741 mmHg 58%
    21:00 +8°C° 0 mm 4 mps 741 mmHg 61%
    22:00 +7°C° 0 mm 4 mps 741 mmHg 64%
    23:00 +7°C° 0 mm 3 mps 742 mmHg 67%

    Tomorrow, 22 April, Sunday

    Time Temperature Precipitation Wind Pressure Humidity
    00:00 +6°C° 0 mm 4 mps 742 mmHg 71%
    01:00 +6°C° 0 mm 4 mps 742 mmHg 76%
    02:00 +6°C° 0 mm 4 mps 742 mmHg 80%
    03:00 +5°C° 0 mm 4 mps 742 mmHg 81%
    04:00 +5°C° 0 mm 4 mps 742 mmHg 81%
    05:00 +4°C° 0 mm 4 mps 742 mmHg 82%
    06:00 +6°C° 0 mm 5 mps 742 mmHg 76%
    07:00 +7°C° 0 mm 5 mps 742 mmHg 70%
    08:00 +8°C° 0 mm 5 mps 743 mmHg 64%
    09:00 +9°C° 0 mm 6 mps 742 mmHg 57%
    10:00 +11°C° 0 mm 7 mps 742 mmHg 50%
    11:00 +13°C° 0 mm 8 mps 742 mmHg 44%
    12:00 +13°C° 0 mm 8 mps 742 mmHg 42%
    13:00 +13°C° 0 mm 8 mps 742 mmHg 41%
    14:00 +15°C° 0 mm 8 mps 742 mmHg 39%
    15:00 +14°C° 0 mm 7 mps 742 mmHg 40%
    16:00 +14°C° 0 mm 7 mps 742 mmHg 42%
    17:00 +13°C° 0 mm 6 mps 742 mmHg 43%
    18:00 +12°C° 0 mm 5 mps 743 mmHg 48%
    19:00 +11°C° 0 mm 4 mps 743 mmHg 53%
    20:00 +9°C° 0 mm 3 mps 743 mmHg 57%
    21:00 +8°C° 0 mm 3 mps 743 mmHg 61%
    22:00 +7°C° 0 mm 2 mps 744 mmHg 64%
    23:00 +6°C° 0 mm 2 mps 744 mmHg 67%

    Day after tomorrow, 23 April, Monday

    Time Temperature Precipitation Wind Pressure Humidity
    00:00 +5°C° 0 mm 2 mps 744 mmHg 71%
    01:00 +4°C° 0 mm 2 mps 744 mmHg 74%
    02:00 +4°C° 0 mm 2 mps 744 mmHg 77%
    03:00 +3°C° 0 mm 2 mps 744 mmHg 79%
    04:00 +3°C° 0 mm 2 mps 745 mmHg 82%
    05:00 +3°C° 0 mm 1 mps 745 mmHg 85%
    06:00 +5°C° 0 mm 1 mps 745 mmHg 79%
    07:00 +7°C° 0 mm 1 mps 745 mmHg 74%
    08:00 +8°C° 0 mm 1 mps 745 mmHg 68%
    09:00 +10°C° 0 mm 1 mps 745 mmHg 62%
    10:00 +12°C° 0 mm 1 mps 745 mmHg 56%
    11:00 +13°C° 0 mm 0 mps 745 mmHg 50%
    12:00 +14°C° 0 mm 1 mps 745 mmHg 47%
    13:00 +15°C° 0 mm 1 mps 744 mmHg 44%
    14:00 +15°C° 0 mm 2 mps 744 mmHg 41%
    15:00 +15°C° 0 mm 2 mps 743 mmHg 41%
    16:00 +15°C° 0 mm 2 mps 743 mmHg 41%
    17:00 +15°C° 0 mm 2 mps 742 mmHg 41%
    18:00 +14°C° 0 mm 2 mps 742 mmHg 47%
    19:00 +13°C° 0 mm 2 mps 742 mmHg 52%
    20:00 +10°C° 0 mm 3 mps 741 mmHg 57%
    21:00 +10°C° 0.3 mm 3 mps 741 mmHg 61%
    22:00 +10°C° 0.3 mm 4 mps 741 mmHg 66%
    23:00 +8°C° 0.3 mm 4 mps 740 mmHg 70%

    24 April, Tuesday

    Time Temperature Precipitation Wind Pressure Humidity
    00:00 +8°C° 0.4 mm 4 mps 740 mmHg 74%
    01:00 +7°C° 0.4 mm 4 mps 740 mmHg 79%
    02:00 +7°C° 0.4 mm 5 mps 740 mmHg 83%
    03:00 +7°C° 0.2 mm 4 mps 739 mmHg 85%
    04:00 +7°C° 0.2 mm 4 mps 739 mmHg 87%
    05:00 +8°C° 0.2 mm 3 mps 739 mmHg 89%
    06:00 +7°C° 0.1 mm 4 mps 739 mmHg 89%
    07:00 +7°C° 0.1 mm 4 mps 739 mmHg 88%
    08:00 +7°C° 0.1 mm 4 mps 739 mmHg 88%
    09:00 +8°C° 0 mm 5 mps 740 mmHg 85%
    10:00 +8°C° 0 mm 5 mps 740 mmHg 82%
    11:00 +9°C° 0 mm 5 mps 740 mmHg 78%
    12:00 +10°C° 0.1 mm 5 mps 740 mmHg 73%
    13:00 +10°C° 0.1 mm 6 mps 740 mmHg 68%
    14:00 +11°C° 0.1 mm 6 mps 740 mmHg 63%
    15:00 +11°C° 0 mm 6 mps 740 mmHg 63%
    16:00 +10°C° 0 mm 6 mps 740 mmHg 63%
    17:00 +10°C° 0 mm 5 mps 740 mmHg 63%
    18:00 +10°C° 0.1 mm 4 mps 740 mmHg 69%
    19:00 +9°C° 0.1 mm 3 mps 740 mmHg 75%
    20:00 +8°C° 0.1 mm 3 mps 740 mmHg 82%
    21:00 +7°C° 0 mm 3 mps 740 mmHg 85%
    22:00 +7°C° 0 mm 3 mps 740 mmHg 88%
    23:00 +5°C° 0 mm 3 mps 740 mmHg 92%

    25 April, Wednesday

    Time Temperature Precipitation Wind Pressure Humidity
    00:00 +7°C° 0 mm 3 mps 740 mmHg 92%
    01:00 +6°C° 0 mm 4 mps 739 mmHg 92%
    02:00 +6°C° 0 mm 4 mps 739 mmHg 93%
    03:00 +7°C° 0.4 mm 4 mps 739 mmHg 92%
    04:00 +7°C° 0.4 mm 5 mps 739 mmHg 92%
    05:00 +8°C° 0.4 mm 5 mps 739 mmHg 91%
    06:00 +8°C° 0.1 mm 5 mps 739 mmHg 87%
    07:00 +8°C° 0.1 mm 5 mps 739 mmHg 84%
    08:00 +8°C° 0.1 mm 6 mps 739 mmHg 80%
    09:00 +8°C° 0.8 mm 5 mps 738 mmHg 82%
    10:00 +8°C° 0.8 mm 5 mps 738 mmHg 85%
    11:00 +8°C° 0.8 mm 4 mps 738 mmHg 87%
    12:00 +8°C° 0.3 mm 4 mps 738 mmHg 86%
    13:00 +9°C° 0.3 mm 5 mps 738 mmHg 86%
    14:00 +10°C° 0.3 mm 5 mps 737 mmHg 85%
    15:00 +10°C° 0.1 mm 5 mps 737 mmHg 81%
    16:00 +10°C° 0.1 mm 6 mps 737 mmHg 77%
    17:00 +10°C° 0.1 mm 6 mps 737 mmHg 73%
    18:00 +9°C° 0 mm 5 mps 738 mmHg 76%
    19:00 +8°C° 0 mm 4 mps 738 mmHg 79%
    20:00 +7°C° 0 mm 3 mps 738 mmHg 82%
    21:00 +7°C° 0 mm 3 mps 738 mmHg 83%
    22:00 +5°C° 0 mm 3 mps 738 mmHg 85%
    23:00 +5°C° 0 mm 3 mps 739 mmHg 86%

    26 April, Thursday

    Time Temperature Precipitation Wind Pressure Humidity
    00:00 +4°C° 0 mm 3 mps 738 mmHg 88%
    01:00 +3°C° 0 mm 3 mps 738 mmHg 90%
    02:00 +4°C° 0 mm 2 mps 738 mmHg 91%
    03:00 +3°C° 0 mm 3 mps 738 mmHg 90%
    04:00 +3°C° 0 mm 3 mps 739 mmHg 89%
    05:00 +3°C° 0 mm 3 mps 739 mmHg 88%
    06:00 +4°C° 0 mm 4 mps 739 mmHg 84%
    07:00 +5°C° 0 mm 5 mps 739 mmHg 79%
    08:00 +6°C° 0 mm 5 mps 739 mmHg 74%
    09:00 +8°C° 0 mm 6 mps 740 mmHg 66%
    10:00 +9°C° 0 mm 7 mps 740 mmHg 58%
    11:00 +11°C° 0 mm 7 mps 740 mmHg 51%
    12:00 +11°C° 0 mm 7 mps 740 mmHg 49%
    13:00 +12°C° 0 mm 7 mps 741 mmHg 47%
    14:00 +12°C° 0 mm 8 mps 741 mmHg 45%
    15:00 +12°C° 0 mm 7 mps 741 mmHg 46%
    16:00 +12°C° 0 mm 7 mps 741 mmHg 47%
    17:00 +11°C° 0 mm 6 mps 742 mmHg 49%
    18:00 +10°C° 0 mm 5 mps 742 mmHg 55%
    19:00 +8°C° 0 mm 4 mps 742 mmHg 61%
    20:00 +8°C° 0 mm 2 mps 742 mmHg 68%
    21:00 +7°C° 0 mm 2 mps 742 mmHg 71%
    22:00 +6°C° 0 mm 2 mps 743 mmHg 74%
    23:00 +6°C° 0 mm 2 mps 743 mmHg 78%
    Show more